Location: Keppel Henge
(44.7900°N, 80.9447°W)
Time: 13:49:01
(UTC-05:00)

Envisat - Pass Details

Date: 11 October 2017
Orbit: 764 x 766 km, 98.2° (Epoch: 16 December)

Event Time Altitude Azimuth Distance (km) Brightness Sun altitude
Exits shadow 22:10:59 26° 269° (W) 1,494 4.9 -36.2°
Drops below altitude 10° 22:15:03 10° 322° (NW) 2,313 6.1 -36.8°
Sets 22:17:45 0° 336° (NNW) 3,245 6.9 -37.2°
